Humidity-temperature Sensor

Selected Measurement Type: Air Temperature

 
Air Temperature [°C]     6 entries per hour
Showing data from 6/2/2017 (00:00:00 Z) to 6/1/2017 (00:01:00 Z)
Previous Next [ Day | 3-Days | 7-Days ]
First Last
Prev [ Day | 3-Days | 7-Days ] Next
First Last

Start Time:     :
End Time:     :     
Time (in GMT) :00 :50 :40 :30 :20 :10
Previous Next [ Day | 3-Days | 7-Days ]
First Last
Prev [ Day | 3-Days | 7-Days ] Next
First Last


123 => good data
MM => data is determined as missing
-- => data not received/configured
Back to Top Back to Top
6/2/2017 00:00 to 23:10 27.74 27.42 27.49 27.54 27.36 27.46
6/1/2017 23:00 to 22:10 27.41 27.49 27.37 27.40 27.24 27.26
6/1/2017 22:00 to 21:10 27.39 27.31 27.44 27.42 27.35 27.37
6/1/2017 21:00 to 20:10 27.27 27.22 27.26 27.25 27.32 27.31
6/1/2017 20:00 to 19:10 27.33 27.31 27.23 27.21 27.17 27.18
6/1/2017 19:00 to 18:10 27.31 27.25 27.22 27.23 27.35 27.20
6/1/2017 18:00 to 17:10 27.27 27.14 27.20 27.22 27.24 27.31
6/1/2017 17:00 to 16:10 27.23 27.30 27.24 27.28 27.19 27.26
6/1/2017 16:00 to 15:10 -- -- -- -- -- --
6/1/2017 15:00 to 14:10 27.44 27.24 27.34 27.31 27.14 27.20
6/1/2017 14:00 to 13:10 27.04 27.24 27.09 27.06 27.09 27.04
6/1/2017 13:00 to 12:10 27.03 27.00 27.04 27.00 26.96 27.02
6/1/2017 12:00 to 11:10 27.08 27.05 27.07 26.96 26.94 26.99
6/1/2017 11:00 to 10:10 26.97 27.08 27.01 27.10 27.00 27.00
6/1/2017 10:00 to 9:10 27.12 27.03 27.15 27.19 27.17 27.04
6/1/2017 09:00 to 8:10 27.25 27.16 27.13 27.25 27.29 27.26
6/1/2017 08:00 to 7:10 27.31 27.32 27.39 27.30 27.36 27.38
6/1/2017 07:00 to 6:10 27.33 27.26 27.36 27.30 27.48 27.33
6/1/2017 06:00 to 5:10 27.34 27.35 27.37 27.30 27.37 27.29
6/1/2017 05:00 to 4:10 27.45 27.34 27.34 27.40 27.41 27.39
6/1/2017 04:00 to 3:10 27.39 27.40 27.38 27.35 27.43 27.50
6/1/2017 03:00 to 2:10 27.32 27.38 27.40 27.45 27.48 27.31
6/1/2017 02:00 to 1:10 27.50 27.45 27.33 27.37 27.34 27.37
6/1/2017 01:00 to 0:10 27.38 27.35 27.37 27.42 27.42 27.36